User: anonymous   Login
Location: Unspecified
(0.0000°N, 0.0000°E)
Time: 07:19:41
(UTC+02:00)
Language:

GPS 2-05 Rocket1 - Orbit

View from above orbital plane
View from above orbital plane
View from above satellite
View from above satellite

Ground track
Ground track

The orbit data is extracted from the following two-line orbital elements,

1 20362U 89097B   17233.29367240  .00014559  00000-0  20674-3 0  9991
2 20362  35.6068 168.1467 0052582 198.8723 295.2117 15.53896302509953
Epoch (UTC): 21 August 2017 07:02:53
Eccentricity: 0.0052582
inclination: 35.6068°
perigee height: 370 km
apogee height: 441 km
right ascension of ascending node: 168.1467°
argument of perigee: 198.8723°
revolutions per day: 15.53896302
mean anomaly at epoch: 295.2117°
orbit number at epoch: 50995

The dashed part of the orbit path shows where the satellite is in the earth's shadow,  

DLR